TimeEDT,TemperatureF,Dew PointF,Humidity,Sea Level PressureIn,VisibilityMPH,Wind Direction,Wind SpeedMPH,Gust SpeedMPH,PrecipitationIn,Events,Conditions,WindDirDegrees,DateUTC
12:51 AM,48.9,36.0,61,30.07,10.0,SW,9.2,-,N/A,,Scattered Clouds,220,2012-09-25 04:51:00
1:51 AM,48.0,36.0,63,30.07,10.0,SSW,6.9,-,N/A,,Partly Cloudy,210,2012-09-25 05:51:00
2:51 AM,46.0,36.0,68,30.08,10.0,South,5.8,-,N/A,,Clear,190,2012-09-25 06:51:00
3:51 AM,44.6,35.6,71,30.06,10.0,South,6.9,-,N/A,,Clear,180,2012-09-25 07:51:00
4:51 AM,44.1,36.0,73,30.08,10.0,South,6.9,-,N/A,,Clear,190,2012-09-25 08:51:00
5:51 AM,46.0,37.0,71,30.08,10.0,SSW,6.9,-,N/A,,Partly Cloudy,200,2012-09-25 09:51:00
6:51 AM,45.0,37.0,74,30.08,10.0,South,8.1,-,N/A,,Clear,180,2012-09-25 10:51:00
7:51 AM,46.9,37.9,71,30.06,10.0,SSE,6.9,-,N/A,,Partly Cloudy,160,2012-09-25 11:51:00
8:51 AM,51.1,39.9,66,30.07,8.0,SSW,11.5,-,N/A,,Partly Cloudy,200,2012-09-25 12:51:00
9:51 AM,55.9,39.9,55,30.09,10.0,SSW,12.7,-,N/A,,Scattered Clouds,210,2012-09-25 13:51:00
10:51 AM,57.9,42.1,56,30.09,10.0,SSW,9.2,-,N/A,,Mostly Cloudy,200,2012-09-25 14:51:00
11:51 AM,62.1,44.1,52,30.05,10.0,South,10.4,-,N/A,,Mostly Cloudy,190,2012-09-25 15:51:00
12:51 PM,64.9,45.0,48,30.04,10.0,South,12.7,-,N/A,,Mostly Cloudy,170,2012-09-25 16:51:00
1:51 PM,64.9,45.0,48,30.01,10.0,South,17.3,-,N/A,,Overcast,170,2012-09-25 17:51:00
2:51 PM,64.4,46.4,52,29.99,10.0,South,13.8,-,N/A,,Overcast,190,2012-09-25 18:51:00
3:51 PM,66.9,48.0,51,29.97,9.0,SSW,13.8,23.0,N/A,,Mostly Cloudy,200,2012-09-25 19:51:00
4:51 PM,64.0,46.9,54,29.98,9.0,South,15.0,-,N/A,,Overcast,190,2012-09-25 20:51:00
5:51 PM,61.0,48.0,62,30.01,9.0,SSW,18.4,26.5,N/A,,Overcast,200,2012-09-25 21:51:00
6:51 PM,57.0,52.0,83,30.01,8.0,SSW,6.9,-,0.01,,Overcast,200,2012-09-25 22:51:00
7:51 PM,55.4,51.8,88,30.00,3.0,South,9.2,-,N/A,Rain,Light Rain,190,2012-09-25 23:51:00
8:51 PM,57.0,52.0,83,30.01,7.0,SSW,6.9,-,0.01,,Overcast,200,2012-09-26 00:51:00
9:51 PM,57.0,52.0,83,30.00,9.0,SSW,8.1,-,N/A,,Overcast,200,2012-09-26 01:51:00
10:21 PM,57.2,53.6,88,30.00,8.0,SSW,9.2,-,N/A,,Overcast,200,2012-09-26 02:21:00
10:51 PM,57.9,53.1,84,30.00,8.0,South,10.4,-,N/A,,Overcast,190,2012-09-26 02:51:00
11:51 PM,57.9,54.0,87,30.01,7.0,SSW,11.5,-,N/A,,Overcast,200,2012-09-26 03:51:00